Station FTPC1 - 9414290 - San Francisco, CA Image indicating link to RSS feed of recent meteorological observations for station FTPC1


Conditions at FTPC1 as of
(9:00 am PDT)
1600 GMT on 04/14/2024:
     

Click on the graph icon in the table below to see a time series plot of the last five days of that observation.

5-day plot - Wind Direction Wind Direction (WDIR): N ( 360 deg true )
5-day plot - Wind Speed Wind Speed (WSPD): 13.0 kts
5-day plot - Wind Gust Wind Gust (GST): 15.9 kts
5-day plot - Atmospheric Pressure Atmospheric Pressure (PRES):30.09 in
5-day plot - Pressure Tendency Pressure Tendency (PTDY):+0.09 in ( Rising )
5-day plot - Air Temperature Air Temperature (ATMP): 48.7 °F
5-day plot - Wind Chill Wind Chill (CHILL): 43.0 °F
5-day plot - Wind Speed at 10 Meters Wind Speed at 10 meters (WSPD10M): 13.6 kts
5-day plot - Wind Speed at 20 Meters Wind Speed at 20 meters (WSPD20M): 15.5 kts
5-day plot -  Wind Speed, Wind Gust and Atmospheric Pressure Combined plot of Wind Speed, Gust, and Air Pressure
NOS Water Level Observation Network Water Level
Previous observations
TIME
(PDT)
5-day plot - Wind Direction
WDIR
 
5-day plot - Wind Speed
WSPD
kts
5-day plot - Wind Gust
GST
kts
5-day plot - Wave Height
WVHT
ft
5-day plot - Dominant Wave Period
DPD
sec
5-day plot - Average Wave Period
APD
sec
5-day plot - Mean Wave Direction
MWD
 
5-day plot - Atmospheric Pressure
PRES
in
5-day plot - Pressure Tendency
PTDY
in
5-day plot - Air Temperature
ATMP
°F
5-day plot - Water Temperature
WTMP
°F
5-day plot - Dew Point
DEWP
°F
5-day plot - Salinity
SAL
psu
5-day plot - Visibility
VIS
nmi
5-day plot - Tide (above MLLW)
TIDE
ft
2024-04-14 08:54 am N 12.0 14.0----30.09- 48.7-----
2024-04-14 08:48 am N 12.0 15.0----30.09- 48.7-----
2024-04-14 08:42 am N 13.0 15.9----30.09- 48.7-----
2024-04-14 08:36 am N 13.0 15.9----30.09- 48.9-----
2024-04-14 08:30 am N 12.0 15.9----30.09-------
2024-04-14 08:24 am N 12.0 15.0----30.08-------
2024-04-14 08:18 am N 12.0 15.0----30.08-------
2024-04-14 08:12 am N 12.0 14.0----30.08-------
2024-04-14 08:06 am N 11.1 14.0----30.07-------
2024-04-14 08:00 am N 11.1 13.0----30.07+0.08 48.6-----
2024-04-14 07:54 am N 11.1 14.0----30.07- 48.4-----
2024-04-14 07:48 am N 12.0 13.0----30.06-------
2024-04-14 07:42 am N 12.0 14.0----30.06- 48.6-----
2024-04-14 07:36 am N 11.1 15.9----30.06- 48.6-----
2024-04-14 07:30 am N 13.0 15.9----30.06- 48.6-----
2024-04-14 07:24 am N 12.0 15.9----30.05- 48.4-----
2024-04-14 07:18 am N 13.0 15.0----30.05-------
2024-04-14 07:12 am N 12.0 15.0----30.04- 48.0-----
2024-04-14 07:06 am N 12.0 15.0----30.04- 47.8-----
2024-04-14 07:00 am N 13.0 15.0----30.03+0.06------
2024-04-14 06:54 am N 13.0 15.0----30.03-------
2024-04-14 06:48 am N 12.0 13.0----30.02-------
2024-04-14 06:42 am N 11.1 13.0----30.01- 48.2-----
2024-04-14 06:36 amNNW 11.1 14.0----30.01- 48.2-----
2024-04-14 06:30 amNNW 12.0 15.0----30.01-------
2024-04-14 06:24 am N 11.1 14.0----30.00-------
2024-04-14 06:18 am N 8.0 12.0----30.00- 48.4-----
2024-04-14 06:12 am N 8.0 11.1----30.00- 48.4-----
2024-04-14 06:06 am N 8.0 9.9----30.00- 48.2-----
2024-04-14 06:00 am N 8.0 8.9----30.00- 48.0-----
2024-04-14 05:54 am N 5.1 7.0----30.00- 48.0-----
2024-04-14 05:48 am-------29.99- 48.2-----
2024-04-14 05:42 am-------29.99- 48.0-----
2024-04-14 05:36 am-------29.99- 48.4-----
2024-04-14 05:30 amNNE 6.0 8.0----29.98-------
2024-04-14 05:24 amENE 5.1 7.0----29.98-------
2024-04-14 05:18 am E 6.0 7.0----29.98- 48.0-----
2024-04-14 05:12 amENE 6.0 8.0----29.98- 48.0-----
2024-04-14 05:06 amENE 6.0 7.0----29.99- 48.0-----
2024-04-14 05:00 am E 6.0 7.0----29.99+0.02------
2024-04-14 04:54 am E 5.1 7.0----29.98-------
2024-04-14 04:48 am E 6.0 8.9----29.98-------
2024-04-14 04:42 am E 5.1 8.0----29.98-------
2024-04-14 04:36 am NE 7.0 11.1----29.98-------
2024-04-14 04:30 am NE 8.9 12.0----29.98- 47.7-----
2024-04-14 04:24 am NE 11.1 14.0----29.98- 47.7-----
2024-04-14 04:18 amNNE 12.0 15.0----29.98-------
2024-04-14 04:12 am NE 13.0 15.9----29.98-------
2024-04-14 04:06 amNNE 13.0 17.1----29.98-------
2024-04-14 04:00 amNNE 14.0 18.1----29.98+0.02 48.0-----
2024-04-14 03:54 amNNE 12.0 15.9----29.98- 48.4-----
2024-04-14 03:48 am NE 13.0 15.0----29.97-------
2024-04-14 03:42 am NE 14.0 17.1----29.97-------
2024-04-14 03:36 amNNE 14.0 17.1----29.97-------
2024-04-14 03:30 am NE 15.0 17.1----29.96- 48.0-----
2024-04-14 03:24 am NE 15.9 18.1----29.96- 47.7-----
2024-04-14 03:18 amNNE 15.9 18.1----29.96-------
2024-04-14 03:12 amNNE 15.0 18.1----29.96- 47.8-----
2024-04-14 03:06 amNNE 15.9 20.0----29.96- 47.3-----
2024-04-14 03:00 amNNE 15.9 20.0------ 47.3-----
2024-04-14 02:54 amNNE 15.9 20.0------ 47.5-----
2024-04-14 02:48 amNNE 17.1 19.0------ 47.5-----
2024-04-14 02:42 am NE 17.1 19.0------ 47.3-----
2024-04-14 02:36 amNNE 18.1 20.0------ 47.1-----
2024-04-14 02:30 amNNE 15.9 20.0----29.96-------
2024-04-14 02:24 amNNE 15.9 19.0----29.96-------
2024-04-14 02:18 amNNE 18.1 20.0----29.96- 47.3-----
2024-04-14 02:12 amNNE 17.1 21.0----29.97- 47.1-----
2024-04-14 02:06 amNNE 18.1 21.0----29.96- 47.1-----
2024-04-14 02:00 amNNE 18.1 20.0----29.96+0.04 47.3-----
2024-04-14 01:54 amNNE 17.1 19.0----29.97- 47.3-----
2024-04-14 01:48 amNNE 17.1 19.0----29.96-------
2024-04-14 01:42 amNNE 15.0 18.1----29.96- 48.2-----
2024-04-14 01:36 amNNE 15.0 18.1----29.96- 48.2-----
2024-04-14 01:30 am N 15.9 18.1----29.96- 48.6-----
2024-04-14 01:24 am N 15.9 18.1----29.96- 49.1-----
2024-04-14 01:18 amNNE 15.0 15.9----29.96-------
2024-04-14 01:12 amNNE 13.0 18.1----29.96- 50.2-----
2024-04-14 01:06 amNNE 15.0 18.1----29.96- 50.0-----
2024-04-14 01:00 amNNE 14.0 18.1----29.96+0.02 49.5-----
2024-04-14 12:54 amNNE 15.0 17.1----29.96- 49.5-----
2024-04-14 12:48 amNNE 12.0 17.1----29.96- 49.8-----
2024-04-14 12:42 am NE 12.0 13.0----29.95- 50.4-----
2024-04-14 12:36 am E 9.9 14.0----29.95- 51.1-----
2024-04-14 12:30 amENE 9.9 12.0----29.95- 50.9-----
2024-04-14 12:24 amENE 8.9 12.0----29.95- 50.9-----
2024-04-14 12:18 amENE 8.0 11.1----29.95- 50.4-----
2024-04-14 12:12 am E 5.1 8.0----29.94- 50.0-----
2024-04-14 12:06 am E 7.0 9.9----29.94- 50.0-----
2024-04-14 12:00 amENE 8.0 11.1----29.94+0.00 49.8-----
2024-04-13 11:54 pmENE 9.9 11.1----29.93- 50.0-----
2024-04-13 11:48 pmENE 8.9 11.1----29.93-------
2024-04-13 11:42 pm E 8.0 11.1----29.93- 50.9-----
2024-04-13 11:36 pm E 8.0 12.0----29.93- 50.7-----
2024-04-13 11:30 pm E 8.9 13.0----29.93- 50.9-----
2024-04-13 11:24 pm E 8.0 12.0----29.92- 50.7-----
2024-04-13 11:18 pm E 8.0 13.0----29.92-------
2024-04-13 11:12 pm E 8.0 12.0----29.92- 50.4-----
2024-04-13 11:06 pm E 8.0 12.0----29.92- 50.0-----
2024-04-13 11:00 pmESE 7.0 11.1----29.92-0.01 49.8-----
2024-04-13 10:54 pmESE 9.9 15.0----29.92- 49.8-----
2024-04-13 10:48 pmESE 8.0 11.1----29.93- 49.8-----
2024-04-13 10:42 pm E 8.0 14.0----29.93- 49.8-----
2024-04-13 10:36 pmESE 8.9 12.0----29.93- 49.6-----
2024-04-13 10:30 pm E 8.9 13.0----29.93- 49.8-----
2024-04-13 10:24 pm E 8.0 12.0----29.93- 50.0-----
2024-04-13 10:18 pm E 7.0 13.0------------
2024-04-13 10:12 pm E 9.9 14.0----29.94- 50.0-----
2024-04-13 10:06 pm E 8.9 15.0----29.94- 50.2-----
2024-04-13 10:00 pm E 8.9 13.0----29.94+0.02 50.2-----
2024-04-13 09:54 pm E 8.0 11.1----29.94- 50.2-----
2024-04-13 09:48 pm E 8.0 11.1----29.94- 50.2-----
2024-04-13 09:42 pm E 8.9 12.0----29.94- 50.2-----
2024-04-13 09:36 pm E 9.9 14.0----29.94- 50.2-----
2024-04-13 09:30 pm E 9.9 12.0----29.93- 50.0-----
2024-04-13 09:24 pm E 12.0 15.9----29.94- 50.0-----
2024-04-13 09:18 pm E 11.1 15.9----29.94- 50.2-----
2024-04-13 09:12 pm E 8.0 12.0----29.93- 50.4-----
2024-04-13 09:06 pm E 8.0 9.9----29.93- 50.4-----
2024-04-13 09:00 pm E 7.0 12.0----29.93+0.01 50.4-----
2024-04-13 08:54 pm E 8.9 12.0----29.93- 50.2-----
2024-04-13 08:48 pm E 8.9 13.0----29.93- 50.2-----
2024-04-13 08:42 pmENE 12.0 15.0----29.93- 50.4-----
2024-04-13 08:36 pm E 12.0 14.0----29.93- 50.0-----
2024-04-13 08:30 pm E 12.0 15.9----29.93- 49.8-----
2024-04-13 08:24 pm E 13.0 17.1----29.93- 49.8-----
2024-04-13 08:18 pm E 12.0 15.9----29.93- 50.0-----
2024-04-13 08:12 pm E 12.0 17.1----29.93- 50.0-----
2024-04-13 08:06 pm E 13.0 17.1----29.93- 50.2-----
2024-04-13 08:00 pm E 12.0 15.9----29.93+0.02 50.2-----
2024-04-13 07:54 pm E 14.0 19.0----29.93- 50.2-----
2024-04-13 07:48 pm E 12.0 15.9----29.93- 50.5-----
2024-04-13 07:42 pm E 11.1 17.1----29.93- 50.9-----
2024-04-13 07:36 pm E 12.0 17.1----29.93- 50.9-----
2024-04-13 07:30 pm E 14.0 18.1----29.93- 51.1-----
2024-04-13 07:24 pm E 12.0 14.0----29.93- 51.1-----
2024-04-13 07:18 pm E 9.9 14.0----29.92- 51.3-----
2024-04-13 07:12 pm E 9.9 14.0----29.93- 51.1-----
2024-04-13 07:06 pm E 13.0 15.0----29.93- 51.1-----
2024-04-13 07:00 pm E 8.9 11.1----29.92+0.02 51.3-----
2024-04-13 06:54 pm E 9.9 12.0----29.92- 51.1-----
2024-04-13 06:48 pm E 12.0 15.0----29.92- 51.1-----
2024-04-13 06:42 pm E 8.0 17.1----29.92- 50.9-----
2024-04-13 06:36 pmENE 13.0 15.9----29.92- 50.9-----
2024-04-13 06:30 pm E 8.0 13.0----29.92- 50.4-----
2024-04-13 06:24 pm E 7.0 8.9----29.92- 50.2-----
2024-04-13 06:18 pm E 8.0 12.0----29.92- 50.4-----
2024-04-13 06:12 pm E 11.1 13.0----29.92- 50.4-----
2024-04-13 06:06 pm E 8.0 11.1----29.92- 50.9-----
2024-04-13 06:00 pm E 6.0 12.0----29.92+0.02 50.9-----
2024-04-13 05:54 pm E 9.9 13.0----29.92- 50.7-----
2024-04-13 05:48 pm E 8.0 9.9----29.92- 50.5-----
2024-04-13 05:42 pm E 8.0 11.1----29.92- 50.4-----
2024-04-13 05:36 pm E 9.9 13.0----29.92- 50.4-----
2024-04-13 05:30 pm E 8.0 11.1----29.92- 50.9-----
2024-04-13 05:24 pm E 8.9 13.0----29.92- 50.9-----
2024-04-13 05:18 pm-------29.92- 51.3-----
2024-04-13 05:12 pm-------29.92- 51.4-----
2024-04-13 05:06 pm-------29.91- 51.4-----
2024-04-13 05:00 pm-------29.91+0.00 51.6-----
2024-04-13 04:54 pm-------29.91- 51.6-----
2024-04-13 04:48 pmESE 7.0 9.9----29.91- 51.3-----
2024-04-13 04:42 pmESE 6.0 11.1----29.91- 51.1-----
2024-04-13 04:36 pmESE 8.9 13.0----29.91- 51.3-----
2024-04-13 04:30 pm SE 8.9 12.0----29.90- 51.3-----
2024-04-13 04:24 pm SE 8.0 13.0----29.91- 52.0-----
2024-04-13 04:18 pmESE 9.9 15.0----29.91- 52.2-----
2024-04-13 04:12 pm SE 8.0 12.0----29.91- 52.3-----
2024-04-13 04:06 pmESE 8.0 13.0----29.90- 52.3-----
2024-04-13 04:00 pmESE 8.9 12.0----29.90+0.00 52.3-----
2024-04-13 03:54 pmESE 7.0 12.0----29.90- 52.2-----
2024-04-13 03:48 pmESE 9.9 13.0----29.90-------
2024-04-13 03:42 pmESE 9.9 13.0----29.91- 52.2-----
2024-04-13 03:36 pm E 9.9 12.0----29.91- 52.3-----
2024-04-13 03:30 pmESE 6.0 9.9----29.90- 52.5-----
2024-04-13 03:24 pm SE 8.9 13.0----29.90- 52.3-----
2024-04-13 03:18 pmESE 8.9 12.0----29.91-------
2024-04-13 03:12 pm SE 6.0 9.9----29.91- 52.5-----
2024-04-13 03:06 pm SE 6.0 9.9----29.90- 52.3-----
2024-04-13 03:00 pmESE 7.0 11.1----29.90+0.00 52.3-----
2024-04-13 02:54 pmESE 7.0 11.1----29.90- 52.3-----
2024-04-13 02:48 pmESE 8.9 13.0----29.90- 52.3-----
2024-04-13 02:42 pm SE 8.0 11.1----29.90- 52.2-----
2024-04-13 02:36 pmESE 8.9 12.0----29.91- 52.2-----
2024-04-13 02:30 pm SE 8.0 12.0----29.91- 52.3-----
2024-04-13 02:24 pmESE 7.0 8.9----29.91- 52.2-----
2024-04-13 02:18 pmESE 5.1 9.9----29.91-------
2024-04-13 02:12 pmESE 7.0 9.9----29.91- 51.8-----
2024-04-13 02:06 pmESE 9.9 13.0----29.91- 51.8-----
2024-04-13 02:00 pm SE 8.0 11.1----29.91+0.02 52.0-----
2024-04-13 01:54 pmESE 5.1 11.1----29.91- 52.0-----
2024-04-13 01:48 pmSSE 7.0 13.0----29.91- 52.2-----
2024-04-13 01:42 pm--------- 52.2-----
2024-04-13 01:36 pm--------- 52.0-----
2024-04-13 01:30 pmESE 6.0 11.1----29.91-------
2024-04-13 01:24 pmESE 8.0 13.0----29.91-------
2024-04-13 01:18 pmESE 7.0 12.0----29.91-------
2024-04-13 01:12 pmESE 8.9 13.0----29.91- 51.3-----
2024-04-13 01:06 pmESE 8.0 13.0----29.91- 51.3-----
2024-04-13 01:00 pmESE 9.9 13.0----29.90+0.04 50.7-----
2024-04-13 12:54 pmESE 11.1 14.0----29.91- 50.5-----
2024-04-13 12:48 pmESE 11.1 14.0----29.91- 50.5-----
2024-04-13 12:42 pmESE 9.9 15.0----29.91- 50.5-----
2024-04-13 12:36 pmESE 9.9 15.0----29.90- 50.5-----
2024-04-13 12:30 pmESE 8.9 12.0----29.90- 50.5-----
2024-04-13 12:24 pmESE 8.0 14.0----29.90- 50.5-----
2024-04-13 12:18 pmESE 11.1 15.0----29.90- 50.5-----
2024-04-13 12:12 pmESE 8.9 19.0----29.90- 50.5-----
2024-04-13 12:06 pmESE 12.0 19.0----29.90- 50.4-----
2024-04-13 12:00 pmESE 8.0 13.0----29.90+0.04 50.4-----
2024-04-13 11:54 amESE 9.9 19.0----29.88- 50.2-----
2024-04-13 11:48 am SE 11.1 17.1----29.89-------
2024-04-13 11:42 am SE 9.9 18.1----29.88-------
2024-04-13 11:36 amESE 12.0 18.1----29.88-------
2024-04-13 11:30 amESE 17.1 21.0----29.88- 49.6-----
2024-04-13 11:24 amESE 15.9 20.0----29.88- 49.6-----
2024-04-13 11:18 am-------29.88-------
2024-04-13 11:12 am-------29.88-------
2024-04-13 11:06 am-------29.88-------
2024-04-13 11:00 am SE 14.0 19.0----29.88+0.01 49.1-----
2024-04-13 10:54 am SE 14.0 22.9----29.89- 49.1-----
2024-04-13 10:48 am SE 15.9 25.1----29.88-------
2024-04-13 10:42 am SE 15.0 22.9----29.88-------
2024-04-13 10:36 am SE 13.0 22.0----29.88-------
2024-04-13 10:30 am SE 13.0 18.1----29.88- 49.6-----
2024-04-13 10:24 amESE 13.0 22.9----29.88- 49.5-----
2024-04-13 10:18 amESE 12.0 24.1----29.89- 49.5-----
2024-04-13 10:12 am SE 8.9 19.0----29.88- 49.5-----
2024-04-13 10:06 am SE 13.0 17.1----29.88- 49.3-----
2024-04-13 10:00 amESE 14.0 18.1----29.86+0.00 49.1-----
2024-04-13 09:54 amESE 12.0 18.1----29.86- 48.9-----
2024-04-13 09:48 amESE 9.9 19.0----29.88- 48.7-----
2024-04-13 09:42 am SE 14.0 18.1----29.88- 48.7-----
2024-04-13 09:36 amESE 13.0 18.1----29.88- 48.7-----
2024-04-13 09:30 amESE 11.1 18.1----29.86-------
2024-04-13 09:24 amESE 9.9 18.1----29.86-------
2024-04-13 09:18 am SE 12.0 20.0----29.87-------
2024-04-13 09:12 amESE 11.1 20.0----29.87-------
2024-04-13 09:06 amESE 12.0 20.0----29.87-------
2024-04-13 09:00 amESE 14.0 18.1----29.86+0.00 47.7-----
2024-04-13 08:54 amESE 11.1 14.0----29.86- 47.7-----